Location: Asheville, NC
(35.6000°N, 82.5500°W)
Time: 20:44:49
(UTC-04:00)

STARS - Pass Details

Date: 09 March 2018
Orbit: 626 x 640 km, 98.3° (Epoch: 20 June)

Event Time Altitude Azimuth Distance (km) Brightness Sun altitude
Rises 19:17:15 0° 3° (N) 2,933 ? -9.9°
Reaches altitude 10° 19:19:34 10° 356° (N) 2,019 ? -10.4°
Maximum altitude 19:23:38 38° 288° (WNW) 963 ? -11.2°
Drops below altitude 10° 19:27:40 10° 220° (SW) 1,998 ? -12.0°
Sets 19:29:57 0° 213° (SSW) 2,900 ? -12.5°
